Petersburg, AK

3:55 AM AKDT on May 24, 2017 (GMT -0800)
Johnson Petersburg

Weather History for PAPG - February, 2013

Change the Weather History Date:

Wednesday, February 20, 2013

  Actual Average Record
Temperature  
Mean Temperature 36 °F -  
Max Temperature 39 °F 36 °F 48 °F (1998)
Min Temperature 33 °F 28 °F 3 °F (1986)
Degree Days  
Heating Degree Days 29    
Moisture  
Dew Point 32 °F    
Average Humidity 85    
Maximum Humidity 93    
Minimum Humidity 70    
Precipitation  
Precipitation 0.61 in - - ()
Sea Level Pressure  
Sea Level Pressure 29.52 in    
Wind  
Wind Speed 3 mph (ESE)    
Max Wind Speed 12 mph    
Max Gust Speed 23 mph    
Visibility 7 miles    
Events Rain , Snow    
Averages and records for this station are not official NWS values.
T = Trace of Precipitation, MM = Missing Value Source: NWS Daily Summary

Daily Weather History Graph

Daily Weather History Graph

Search for Another Location

Airport or City:

Trip Planner

Search our weather history database for the weather conditions in past years. The results will help you decide how hot, cold, wet, or windy it might be!

Date:

Astronomy

Feb. 20, 2013 Rise Set
Actual Time 7:06 AM AKST 5:05 PM AKST
Civil Twilight 6:27 AM AKST 5:44 PM AKST
Nautical Twilight 5:43 AM AKST 6:28 PM AKST
Astronomical Twilight 4:59 AM AKST 7:12 PM AKST
Moon 11:56 AM AKST (2/20) 4:09 AM AKST (2/20)
Length of Visible Light 11h 17m
Length of Day
9h 59m
Waxing Gibbous, 77% of the Moon is Illuminated
Feb 20
Waxing Gibbous
Feb 25
Full
Mar 4
Last Quarter
Mar 11
New
Mar 19
First Quarter

Hourly Weather History & Observations

Time (AKST) Temp. Windchill Dew Point Humidity Pressure Visibility Wind Dir Wind Speed Gust Speed Precip Events Conditions
12:16 AM 37.4 °F 32.8 °F 33.8 °F 87% 29.66 in 10.0 mi ESE 5.8 mph - N/A   Overcast
12:36 AM 37.4 °F 30.3 °F 33.8 °F 87% 29.64 in 9.0 mi East 10.4 mph - 0.01 in   Overcast
12:56 AM 37.4 °F 34.9 °F 33.8 °F 87% 29.64 in 10.0 mi ESE 3.5 mph - 0.01 in   Overcast
1:16 AM 37.4 °F - 33.8 °F 87% 29.64 in 10.0 mi Calm Calm - N/A   Overcast
1:36 AM 37.4 °F - 33.8 °F 87% 29.64 in 9.0 mi Calm Calm - 0.03 in   Overcast
1:56 AM 35.6 °F - 33.8 °F 93% 29.62 in 9.0 mi Calm Calm - 0.06 in   Overcast
2:16 AM 35.6 °F - 33.8 °F 93% 29.61 in 10.0 mi Calm Calm - 0.01 in   Overcast
2:36 AM 35.6 °F - 33.8 °F 93% 29.61 in 10.0 mi Calm Calm - 0.03 in   Overcast
2:56 AM 35.6 °F - 33.8 °F 93% 29.60 in 8.0 mi Calm Calm - 0.05 in   Overcast
3:16 AM 35.6 °F - 32.0 °F 87% 29.59 in 10.0 mi Calm Calm - 0.02 in   Overcast
3:36 AM 35.6 °F - 32.0 °F 87% 29.58 in 10.0 mi Calm Calm - 0.05 in   Overcast
3:56 AM 35.6 °F - 32.0 °F 87% 29.58 in 10.0 mi Calm Calm - 0.06 in   Overcast
4:16 AM 33.8 °F - 32.0 °F 93% 29.57 in 10.0 mi Calm Calm - 0.02 in   Overcast
4:36 AM 33.8 °F - 30.2 °F 87% 29.57 in 10.0 mi Calm Calm - 0.04 in   Overcast
4:56 AM 33.8 °F - 30.2 °F 87% 29.57 in 10.0 mi Calm Calm - 0.06 in   Overcast
5:16 AM 33.8 °F - 30.2 °F 87% 29.56 in 7.0 mi Calm Calm - 0.03 in   Overcast
5:36 AM 33.8 °F - 30.2 °F 87% 29.56 in 8.0 mi Calm Calm - 0.05 in   Overcast
6:55 AM 35.6 °F - 32.0 °F 87% 29.56 in 4.0 mi Calm Calm - N/A Rain , Snow Light Rain
8:33 AM 33.8 °F - 30.2 °F 87% 29.58 in 5.0 mi Calm Calm - N/A Rain , Snow Light Rain
8:36 AM 33.8 °F - 32.0 °F 93% 29.58 in 5.0 mi Calm Calm - N/A   Overcast
8:56 AM 33.8 °F 30.8 °F 32.0 °F 93% 29.58 in - NNE 3.5 mph - N/A   Unknown
9:16 AM 35.6 °F - 32.0 °F 87% 29.58 in 10.0 mi Calm Calm - N/A   Mostly Cloudy
9:36 AM 35.6 °F 32.8 °F 33.8 °F 93% 29.58 in 10.0 mi SSW 3.5 mph - N/A   Mostly Cloudy
9:56 AM 37.4 °F 30.8 °F 32.0 °F 81% 29.59 in 10.0 mi South 9.2 mph - N/A   Mostly Cloudy
10:16 AM 39.2 °F 35.0 °F 32.0 °F 75% 29.59 in 10.0 mi SSE 5.8 mph - N/A   Mostly Cloudy
10:36 AM 37.4 °F 30.3 °F 33.8 °F 87% 29.59 in 10.0 mi East 10.4 mph - N/A   Mostly Cloudy
10:56 AM 37.4 °F 34.9 °F 33.8 °F 87% 29.59 in 10.0 mi East 3.5 mph - N/A   Overcast
11:16 AM 39.2 °F - 33.8 °F 81% 29.59 in 10.0 mi Calm Calm - N/A   Overcast
11:36 AM 39.2 °F 35.9 °F 33.8 °F 81% 29.59 in 10.0 mi SE 4.6 mph - N/A   Overcast
11:56 AM 37.4 °F - 32.0 °F 81% 29.58 in 7.0 mi Calm Calm - 0.01 in   Overcast
12:16 PM 37.4 °F - 33.8 °F 87% 29.58 in 7.0 mi Calm Calm - N/A   Overcast
12:36 PM 37.4 °F 32.1 °F 33.8 °F 87% 29.57 in 7.0 mi SSW 6.9 mph - 0.01 in   Overcast
12:56 PM 39.2 °F 32.5 °F 30.2 °F 70% 29.57 in 5.0 mi SSW 10.4 mph 17.3 mph 0.01 in   Overcast
1:16 PM 39.2 °F 33.6 °F 33.8 °F 81% 29.56 in 5.0 mi South 8.1 mph - N/A   Overcast
1:36 PM 39.2 °F 33.6 °F 32.0 °F 75% 29.56 in 5.0 mi South 8.1 mph - N/A   Overcast
1:56 PM 37.4 °F 31.4 °F 32.0 °F 81% 29.55 in 5.0 mi South 8.1 mph - 0.01 in   Overcast
2:16 PM 37.4 °F 32.1 °F 32.0 °F 81% 29.54 in 5.0 mi East 6.9 mph - N/A   Overcast
2:36 PM 37.4 °F - 33.8 °F 87% 29.54 in 5.0 mi Calm Calm - 0.01 in   Overcast
2:56 PM 37.4 °F 34.9 °F 32.0 °F 81% 29.54 in 5.0 mi NW 3.5 mph - 0.01 in   Overcast
3:16 PM 35.6 °F - 33.8 °F 93% 29.53 in 5.0 mi Calm Calm - 0.03 in   Overcast
3:36 PM 35.6 °F 31.7 °F 32.0 °F 87% 29.53 in 5.0 mi ESE 4.6 mph - 0.05 in   Overcast
3:56 PM 35.6 °F 31.7 °F 30.2 °F 81% 29.52 in 3.0 mi East 4.6 mph - 0.07 in   Overcast
4:16 PM 33.8 °F - 30.2 °F 87% 29.51 in 3.0 mi Calm Calm - 0.01 in   Overcast
4:36 PM 35.6 °F 32.8 °F 32.0 °F 87% 29.50 in 3.0 mi North 3.5 mph - 0.02 in   Overcast
4:56 PM 35.6 °F 32.8 °F 30.2 °F 81% 29.49 in 4.0 mi South 3.5 mph - 0.02 in   Overcast
5:16 PM 33.8 °F - 30.2 °F 87% 29.48 in 4.0 mi Calm Calm - 0.01 in   Overcast
5:36 PM 33.8 °F - 30.2 °F 87% 29.48 in 4.0 mi Calm Calm - 0.04 in   Overcast
5:56 PM 33.8 °F - 30.2 °F 87% 29.47 in 2.0 mi Calm Calm - 0.06 in   Overcast
6:16 PM 33.8 °F 30.8 °F 30.2 °F 87% 29.46 in 2.0 mi NW 3.5 mph - N/A   Overcast
6:36 PM 33.8 °F - 30.2 °F 87% 29.45 in 2.0 mi Calm Calm - 0.01 in   Overcast
6:56 PM 33.8 °F - 30.2 °F 87% 29.44 in 3.0 mi Calm Calm - 0.02 in   Overcast
7:16 PM 33.8 °F - 30.2 °F 87% 29.43 in 3.0 mi Calm Calm - 0.01 in   Overcast
7:36 PM 33.8 °F 28.6 °F 32.0 °F 93% 29.42 in 3.0 mi East 5.8 mph - 0.02 in   Overcast
7:56 PM 35.6 °F 30.7 °F 30.2 °F 81% 29.41 in 5.0 mi East 5.8 mph - 0.04 in   Overcast
8:16 PM 35.6 °F 29.9 °F 32.0 °F 87% 29.41 in 5.0 mi East 6.9 mph - 0.01 in   Overcast
8:56 PM 35.6 °F 29.9 °F 30.2 °F 81% 29.39 in 5.0 mi East 6.9 mph - 0.03 in   Overcast
9:16 PM 35.6 °F 28.0 °F 30.2 °F 81% 29.38 in 5.0 mi ESE 10.4 mph 23.0 mph N/A   Overcast
9:36 PM 35.6 °F 27.5 °F 30.2 °F 81% 29.38 in 5.0 mi ESE 11.5 mph 21.9 mph 0.01 in   Overcast
9:56 PM 35.6 °F 28.0 °F 30.2 °F 81% 29.38 in 5.0 mi East 10.4 mph 19.6 mph 0.02 in   Overcast
10:16 PM 35.6 °F 29.2 °F 30.2 °F 81% 29.38 in 10.0 mi SE 8.1 mph 16.1 mph N/A   Overcast
10:36 PM 35.6 °F 30.7 °F 30.2 °F 81% 29.37 in 10.0 mi SE 5.8 mph - N/A   Overcast
10:56 PM 35.6 °F 28.6 °F 30.2 °F 81% 29.37 in 10.0 mi ESE 9.2 mph 16.1 mph 0.01 in   Overcast
11:16 PM 35.6 °F 32.8 °F 30.2 °F 81% 29.37 in 10.0 mi ESE 3.5 mph 16.1 mph 0.01 in   Overcast
11:36 PM 35.6 °F - 30.2 °F 81% 29.37 in 10.0 mi Calm Calm - 0.01 in   Overcast
11:56 PM 35.6 °F 32.8 °F 30.2 °F 81% 29.37 in 10.0 mi WNW 3.5 mph - 0.01 in   Overcast